Skip Page Navigation
NASA JPL Caltech
NASA Logo - Jet Propulsion Laboratory + View the NASA Portal
+ Near-Earth Object (NEO) Program
Search JPL
JPL Home Earth Solar System Stars & Galaxies Technology
JPL Solar System Dynamics
BODIES ORBITS EPHEMERIDES TOOLS PHYSICAL DATA DISCOVERY FAQ SITE MAP
JPL Small-Body Database Browser
Search: [ help ]  
4663 Falta (1984 SM1)
Classification: Outer Main-belt Asteroid          SPK-ID: 2004663
Ephemeris | Orbit Diagram | Orbital Elements | Physical Parameters | Discovery Circumstances ]

[ show orbit diagram ]
Orbital Elements at Epoch 2456400.5 (2013-Apr-18.0) TDB
Reference: MPO236419 (heliocentric ecliptic J2000)
 Element Value Uncertainty (1-sigma)   Units 
e 0.0593917 n/a  
a 3.2093996 n/a AU
q 3.0187879 n/a AU
i 14.89781 n/a deg
node 353.20342 n/a deg
peri 6.32284 n/a deg
M 349.64452 n/a deg
tp 2456460.9090286
(2013-Jun-17.40902860)
n/a JED
period 2100.0716824
5.75
n/a
n/a
d
yr
n 0.17142272 n/a deg/d
Q 3.4000113 n/a AU
  Orbit Determination Parameters
   # obs. used (total)      760  
   first obs. used      1955-??-??  
   last obs. used      2012-08-15  
   # oppositions      18  
   planetary ephem.      DE403  
   condition code      0  
   fit RMS      0.55  
   data source      MPC:mpn  
   producer      MPCLINUX  

Additional Information
 T_jup = 3.137 

Ephemeris | Orbit Diagram | Orbital Elements | Physical Parameters | Discovery Circumstances ]

Physical Parameter Table
Parameter Symbol Value Units Sigma Reference Notes
absolute magnitude H 12.00 mag n/a IRAS-A-FPA-3-RDR-IMPS-V6.0 IRAS observations used: 8
diameter diameter 28.77 km 1.4 IRAS-A-FPA-3-RDR-IMPS-V6.0 IRAS observations used: 8
geometric albedo albedo 0.0338   0.004 IRAS-A-FPA-3-RDR-IMPS-V6.0 IRAS observations used: 8

4663 Falta           Discovered 1984 Sept. 27 by A. Mrkos at Klet.
Josef Falta (1786-1847) was engineer and cartographer of the Schwarzenberg court in Ceský Krumlov. In 1831 he drew the first map of the panoramic views from the Klet look-out tower opened in 1825. The name was suggested by J. Ticha.
NOTE: some special characters may not display properly (any characters within {} are an attempt to place the proper accent above a character)
Reference: 20080122/MPCPages.arcLast Updated: 2008-03-05

Alternate Designations
 1984 SM1 = 1955 QF1 = 1978 RX3 = 1978 SK4 = 1987 DK5 
Ephemeris | Orbit Diagram | Orbital Elements | Physical Parameters | Discovery Circumstances ]
ABOUT SSD CREDITS/AWARDS PRIVACY/COPYRIGHT GLOSSARY LINKS
FirstGov 2013-May-23 03:00 UT
(server date/time)  
NASA Home Page
Site Manager:   Donald K. Yeomans
Webmaster  Alan B. Chamberlin